Overview Statistics Trail Chart Weather Telemetry Raw packets
 

This is the latest recevied weather packets stored in our database for station/object F4JSG-10. If no packets are shown the sender has not sent any weather packets the latest 10 day(s).

<< 1 2 3 4 >>
Time Temp. Humidity Pressure Rain* Wind** Luminosity Snow
1788567203 22.78° C 58% 992.4 hPa - - - -
1788566303 22.78° C 57% 992.2 hPa - - - -
1788565402 23.33° C 56% 992 hPa - - - -
1788564502 23.33° C 54% 991.9 hPa - - - -
1788563602 23.89° C 49% 991.7 hPa - - - -
1788562702 24.44° C 46% 991.6 hPa - - - -
1788561802 25° C 45% 991.1 hPa - - - -
1788560902 25° C 44% 990.8 hPa - - - -
1788560002 25° C 43% 990.6 hPa - - - -
1788559102 25° C 41% 990.4 hPa - - - -
1788558202 25° C 40% 990.3 hPa - - - -
1788557302 25° C 40% 990.3 hPa - - - -
1788556401 25° C 41% 990.3 hPa - - - -
1788555501 24.44° C 43% 990.3 hPa - - - -
1788554601 24.44° C 50% 990.3 hPa - - - -
1788553701 25° C 48% 990.1 hPa - - - -
1788552801 25° C 47% 990 hPa - - - -
1788551901 25° C 47% 989.8 hPa - - - -
1788551001 25.56° C 47% 989.8 hPa - - - -
1788550101 25.56° C 46% 989.7 hPa - - - -
1788549187 26.67° C 44% 989.6 hPa - - - -
1788548287 27.22° C 43% 989.4 hPa - - - -
1788547387 27.22° C 43% 989.3 hPa - - - -
1788546487 28.33° C 41% 989.1 hPa - - - -
1788545587 29.44° C 38% 989.1 hPa - - - -

* Rain since midnight (hover to see other rain measurements)
** Current wind speed in m/s (hover to see current wind gust speed)